Regional Weather Roundup
Issued by NWS Raleigh/Durham, NC

Home | Current Version | Previous Version | Text Only | Print | Product List | Glossary On
Versions: 1 2 3 4 5 6 7 8 9 10 11 12 13 14 15 16 17 18 19 20 21 22 23 24 25 26 27 28
000
ASUS42 KRAH 270910
RWRRAH
NORTH CAROLINA WEATHER ROUNDUP
NATIONAL WEATHER SERVICE RALEIGH NC
400 AM EST MON FEB 27 2017

NOTE: "FAIR" INDICATES FEW OR NO CLOUDS BELOW 12,000 FEET WITH NO
SIGNIFICANT WEATHER AND/OR OBSTRUCTIONS TO VISIBILITY.

NCZ001-053-055-056-065-067-271000-
WESTERN NORTH CAROLINA

CITY           SKY/WX    TMP DP  RH WIND       PRES   REMARKS
ASHEVILLE      MOCLDY    33  24  69 CALM      30.27R
JEFFERSON      CLOUDY    36  12  36 CALM      30.24S
MORGANTON      PTCLDY    31  24  75 CALM      30.33S
HICKORY        MOCLDY    34  26  72 N5        30.28S WCI  30
RUTHERFORDTON  PTCLDY    32  24  72 NE5       30.30R HAZE    WCI  27
MOUNT AIRY     MOCLDY    34  24  67 CALM      30.31S
BOONE          MOCLDY    27  20  75 CALM      30.25F
$$

NCZ021-022-025-041-071-084-088-271000-
CENTRAL NORTH CAROLINA

CITY           SKY/WX    TMP DP  RH WIND       PRES   REMARKS
CHARLOTTE      PTCLDY    41  20  43 SE5       30.29R
GREENSBORO     MOCLDY    39  22  50 CALM      30.30R
WINSTON-SALEM  CLOUDY    36  22  56 N6        30.31R WCI  31
RALEIGH-DURHAM PTCLDY    36  24  62 CALM      30.33S
FORT BRAGG     CLEAR     35  31  87 CALM      30.33R
FAYETTEVILLE     N/A    N/A N/A N/A MISG        N/A
BURLINGTON     PTCLDY    33  25  72 CALM      30.31R
LAURINBURG     PTCLDY    32  28  85 NE3       30.33S
$$

NCZ011-015-027-028-043-044-047-080-103-271000-
NORTHEASTERN NORTH CAROLINA

CITY           SKY/WX    TMP DP  RH WIND       PRES   REMARKS
ROCKY MT-WILSO CLEAR     30  28  92 CALM      30.35S
GREENVILLE     CLEAR     32  30  93 CALM      30.36S
WASHINGTON     PTCLDY    33  29  86 CALM      30.36F
ELIZABETH CITY CLEAR     40  38  93 SE3       30.38R
MANTEO         CLEAR     37  36  99 CALM      30.39S
CAPE HATTERAS  CLEAR     36  31  82 E5        30.38R WCI  32
$$

NCZ078-087-090-091-093-098-101-271000-
SOUTHEASTERN NORTH CAROLINA

CITY           SKY/WX    TMP DP  RH WIND       PRES   REMARKS
LUMBERTON      PTCLDY    32  31  96 CALM      30.33R
GOLDSBORO      CLEAR     33  29  85 CALM      30.34R
KINSTON        CLEAR     31  28  90 CALM      30.36R
KENANSVILLE    CLEAR     28  27  93 CALM      30.36R
NEW BERN       PTCLDY    34  32  92 S3        30.37S
CHERRY POINT   NOT AVBL
BEAUFORT       CLEAR     43  37  79 NE5       30.37R
JACKSONVILLE   CLEAR     35  35 100 CALM      30.35R
WILMINGTON     CLEAR     35  33  92 CALM      30.35R
$$





USA.gov is the U.S. government's official web portal to all federal, state and local government web resources and services.